Regional Weather Roundup
Issued by NWS Grand Forks, ND

Home | Current Version | Previous Version | Text Only | Print | Product List | Glossary Off
Versions: 1 2 3 4 5 6 7 8 9 10 11 12 13 14 15 16 17 18 19 20 21 22 23 24 25 26 27 28 29 30 31 32 33 34 35 36 37 38 39 40 41 42 43 44 45 46 47 48 49 50

000
ASUS43 KFGF 241131
RWRFGF
PRAIRIE TO PINES  WEATHER ROUNDUP
NATIONAL WEATHER SERVICE EASTERN NORTH DAKOTA/GRAND FORKS ND
600 AM CDT FRI MAR 24 2017

 **SATELLITE DATA USED TO AUGMENT SKY COVER AT AUTOMATED STATIONS**
 *****  WEATHER ACROSS EASTERN NORTH DAKOTA  *****

CITY           SKY/WX    TMP DP  RH WIND       PRES   REMARKS
GRAND FORKS    FAIR      31  29  92 N12       30.03R WCI  22
GRAND FRKS AFB FAIR      29  26  88 N12       30.04R WCI  20
DEVILS LAKE    FAIR      27  24  89 N12       30.06R WCI  17
FARGO          CLOUDY    35  34  96 N8        30.00R FOG
WAHPETON ARPT    N/A     32  32 100 N5        29.99R
$$

 ***** WEATHER ACROSS CENTRAL AND WESTERN NORTH DAKOTA  *****

CITY           SKY/WX    TMP DP  RH WIND       PRES   REMARKS
BISMARCK       FAIR      28  26  92 CALM      30.05R
MINOT          FAIR      25  22  88 NW7       30.06R WCI  17
JAMESTOWN      FAIR      30  29  96 N9        30.00R WCI  22
MINOT AFB      CLEAR     26  24  91 N5        30.07R WCI  21
GARRISON         N/A     26  24  92 N3        30.04R
WILLISTON      FAIR      27  25  92 CALM      30.06R
DICKINSON      FOG       31  31 100 NE3       30.01R VSB 1/4
HETTINGER      FOG       29  28  96 CALM      30.03R VSB 1/2
$$

 *****  OTHER AIRPORT OBSERVATIONS IN OUR AREA  *****

CITY           SKY/WX    TMP DP  RH WIND       PRES   REMARKS
WALHALLA       NOT AVBL
GRAFTON AIRPOR FAIR      28  27  93 N14       30.08R WCI  17
VALLEY CITY AR FAIR      30  30 100 N8        30.02R WCI  23
CANDO          NOT AVBL
CAVALIER APRT  NOT AVBL
GWINNER        CLOUDY    34  34 100 MISG      30.00R FOG
SHEYENNE NWR     N/A     34  34 100 N2        29.95S
ROLLA          CLOUDY    25  25 100 N9        30.09S WCI  15
 ***** THE ABOVE OBSERVATIONS ARE NON NWS ARE NOT QUALITY
       CONTROLLED AND MAY MIS-REPORT RAIN FOR SNOW...
$$

  *****  WEATHER ACROSS NORTHERN MINNESOTA  *****

CITY           SKY/WX    TMP DP  RH WIND       PRES   REMARKS
FLAG ISLAND    FAIR      28  25  86 NW12      29.99R WCI  18
WARROAD        FAIR      28  25  86 NW8       30.01R WCI  20
ROSEAU         FAIR      28  25  86 N10       30.01R WCI  19
HALLOCK        FAIR      28  27  93 N13G18    30.06R WCI  18
THF RVR FALLS  FAIR      30  28  93 N12       30.01R WCI  21
BAUDETTE       FAIR      31  28  89 N9        29.95R WCI  23
WASKISH        CLOUDY    34  34 100 CALM      29.96R
CROOKSTON      MOCLDY    32  30  93 N8        30.04R WCI  25
STEPHEN NDAWN    N/A     28  27  93 N13         N/A  WCI  18
GREENBUSH NDAW   N/A     28  25  86 N12         N/A  WCI  18
$$
  *****  WEATHER ACROSS CENTRAL AND WEST MINNESOTA  *****

CITY           SKY/WX    TMP DP  RH WIND       PRES   REMARKS
FOSSTON        CLOUDY    30  30 100 N10       29.99R FOG     WCI  21
BEMIDJI        CLOUDY    32  32 100 VRB9      29.97R FOG     WCI  24
PARK RAPIDS    CLOUDY    34  31  88 NW5       29.95R
ELBOW LAKE     CLOUDY    32  32 100 N8        29.96R FOG
WADENA         CLOUDY    32  32 100 CALM      29.95R FOG
DETROIT LAKES  CLOUDY    34  34 100 NW5       29.99R FOG
MOORHEAD       CLOUDY    34  32  93 NW5       30.02R FOG
FERGUS FALLS   CLOUDY    34  34 100 N3        30.02R FOG
MORRIS MN      CLOUDY    34  34 100 N8        29.93R FOG
STAPLES        CLOUDY    32  32 100 N5        29.95R FOG
$$
  *****  WEATHER ELSEWHERE ACROSS MINNESOTA  *****

CITY           SKY/WX    TMP DP  RH WIND       PRES   REMARKS
DULUTH         CLOUDY    33  32  96 NW6       29.90R FOG
INTRNTL FALLS  MOCLDY    32  30  92 NW6       29.93R
ELY            CLOUDY    32  32 100 CALM      29.90R FOG
CLOQUET        CLOUDY    34  30  86 CALM      29.91S FOG
WHEATON        CLOUDY    34  32  93 NW7       29.99R FOG
BRAINERD       CLOUDY    33  32  96 N5        29.93R FOG
HIBBING        CLOUDY    32  32 100 CALM      29.91R FOG
ALEXANDRIA     CLOUDY    34  33  96 N9        29.92R
SAINT CLOUD    CLOUDY    35  34  96 NE3       29.89R
MINNEAPOLIS    CLOUDY    38  36  92 N8        29.88R FOG
$$

  *****  WEATHER ACROSS SOUTH DAKOTA  *****

CITY           SKY/WX    TMP DP  RH WIND       PRES   REMARKS
SIOUX FALLS    CLOUDY    39  37  92 NE14      29.89R
BROOKINGS      CLOUDY    36  34  93 N9        29.88R
WATERTOWN      CLOUDY    33  33 100 N12       29.90R FOG     WCI  24
HURON          CLOUDY    37  36  96 N15       29.92R
SISSETON         N/A     34  34 100 N9        29.95R
ABERDEEN       CLOUDY    35  32  88 N9        30.01R
MITCHELL       CLOUDY    39  37  92 N14       29.91R
PIERRE         CLOUDY    41  36  82 N14       29.98R
MOBRIDGE       FAIR      35  31  85 NW7       29.97R
RAPID CITY     CLOUDY    43  37  79 N7        30.02R
$$

  *****  SOME WEATHER IN NEARBY STATES *****

CITY           SKY/WX    TMP DP  RH WIND       PRES   REMARKS
GLASGOW MT     FAIR      27  23  85 E5        30.00R WCI  22
GREAT FALLS MT FAIR      26  16  65 S3        30.00F
CHEYENNE WY    LGT SNOW  33  31  92 N18G26    29.98R FOG     WCI  22
SCOTTSBLUFF NE CLOUDY    41  35  79 N13       29.99R
OMAHA NE       CLOUDY    54  50  86 N12       29.76R
DES MOINES IA  CLOUDY    57  46  66 NW9       29.76R
DAVENPORT IA   FAIR      53  45  74 S17       29.86R
CHICAGO IL     CLOUDY    51  40  65 SW13      29.90S
EAU CLAIRE WI  CLOUDY    38  37  97 N8        29.85R FOG
LA CROSSE WI   CLOUDY    42  39  89 E8        29.82F
$$

  *****  SOME NATIONAL WEATHER *****

CITY           SKY/WX    TMP DP  RH WIND       PRES   REMARKS
LA GUARDIA NY  MOCLDY    39  20  46 S10       30.48F
RALEIGH NC     FAIR      37  29  72 S3        30.52S
ATLANTA GA     CLOUDY    56  45  66 SE8       30.41R
NEW ORLEANS LA MOCLDY    68  65  90 SE10      30.14S
OKLAHOMA CITY  MOCLDY    66  52  60 S28G38    29.75S
ALBUQUERQUE NM CLOUDY    45  28  51 W17G26    29.83S
SALT LAKE CITY FAIR      35  33  92 SE9       30.17R
LOS ANGELES CA FAIR      53  49  86 NE3       30.23S
BOISE ID       FAIR      44  26  49 SE15      30.03S
SEATTLE WA     CLOUDY    47  43  86 E10       29.79F
$$

*** WEATHER ACROSS MANITOBA...SASKATCHEWAN AND ONTARIO ***
                ***ONTARIO***

CITY           SKY/WX    TMP DP  RH WIND       PRES   REMARKS
GERALDTON      CLOUDY    30  28  93 W5        29.86R
THUNDER BAY    CLOUDY    30  30 100 W3        29.90R FOG
SIOUX LOOKOUT  CLOUDY    34  27  75 N8        29.93R
TORONTO        LGT RAIN  34  32  93 SE6       30.09F
BIG TROUT LK   PTCLDY     0  -4  85 N8        30.18R WCI -15
PICKLE LAKE    FLURRIES  27  21  80 N13G25    29.97  WCI  16
DRYDEN         CLOUDY    34  28  80 N8        29.93R
KENORA         MOCLDY    28  23  80 N9        29.98R WCI  20
$$
                *** MANITOBA***

CITY           SKY/WX    TMP DP  RH WIND       PRES   REMARKS
BRANDON        CLOUDY    25  21  86 E5        30.14R WCI  19
DAUPHIN        CLOUDY    27  23  86 NE8       30.16R WCI  18
ISLAND LAKE    NOT AVBL
PILOT MOUND      N/A     23  21  93 N7          N/A  WCI  15
THE PAS        FLURRIES  18  10  73 E9        30.20R WCI   6
THOMPSON       CLEAR    -13 -18  77 NE3       30.34R
WINNIPEG       CLOUDY    28  25  86 NW13      30.10R WCI  18
LYNN LAKE      CLEAR    -13 -17  84 E3        30.29R
CHURCHILL      CLEAR    -18 -24  76 NW14      30.38R WCI -42
GILLAM         CLEAR    -20 -26  76 NW6       30.36R WCI -36
$$
                ***SASKATCHEWAN***

CITY           SKY/WX    TMP DP  RH WIND       PRES   REMARKS
ESTEVAN        PTCLDY    25  23  93 E8        30.09R WCI  16
KINDERSLEY     PTCLDY    23  21  93 NE9       30.01S WCI  13
LLOYDMINSTER   FOG       21  21 100 CALM      30.03S VSB 3/8
PRINCE ALBERT  CLOUDY    25  21  86 SE5       30.12R WCI  19
REGINA         CLEAR     25  21  86 E6        30.06R WCI  18
YORKTON        MOCLDY    18  16  93 VRB2      30.12R
N. BATTLEFORD  MOCLDY    25  25 100 SE10      30.08S WCI  15
LA RONGE       FLURRIES  25  19  80 SE7       30.13S WCI  17
SASKATOON      CLEAR     23  19  86 E3        30.10R
SWIFT CURRENT  CLEAR     27  25  93 E12       29.97S WCI  16
$$
NOTE: THESE ARE AUTOMATED STATIONS WITH LIMITED QUALITY CONTROL
      "FAIR" INDICATES FEW OR NO CLOUDS BELOW 12,000 FEET WITH NO
      SIGNIFICANT WEATHER AND/OR OBSTRUCTIONS TO VISIBILITY.
      SKY/WX - SKY CONDITION AND SIGNIFICANT WEATHER.
      TMP - AIR TEMPERATURE.    DP   - DEWPOINT TEMPERATURE.
      RH  - RELATIVE HUMIDITY.  PRES - PRESSURE.
      HX  - HEAT INDEX.         WCI  - WIND CHILL INDEX.
$




USA.gov is the U.S. government's official web portal to all federal, state and local government web resources and services.